"Sample Date","Sample Time","Sample Value","Units","Flow Rate","Laser Status","Micron Size 0","Counts/Channel 0","Micron Size 1","Counts/Channel 1","Micron Size 2","Counts/Channel 2","Micron Size 3","Counts/Channel 3","Micron Size 4","Counts/Channel 4","Micron Size 5","Counts/Channel 5","Micron Size 6","Counts/Channel 6","Micron Size 7","Counts/Channel 7","Micron Size 8","Counts/Channel 8","Micron Size 9","Counts/Channel 9","Micron Size 10","Counts/Channel 10","Micron Size 11","Counts/Channel 11","Micron Size 12","Counts/Channel 12","Micron Size 13","Counts/Channel 13","Micron Size 14","Counts/Channel 14","Micron Size 15","Counts/Channel 15","Micron Size 16","Counts/Channel 16","Micron Size 17","Counts/Channel 17","Micron Size 18","Counts/Channel 18","Micron Size 19","Counts/Channel 19","Micron Size 20","Counts/Channel 20","Micron Size 21","Counts/Channel 21","Micron Size 22","Counts/Channel 22","Micron Size 23","Counts/Channel 23","Micron Size 24","Counts/Channel 24","Micron Size 25","Counts/Channel 25","Micron Size 26","Counts/Channel 26","Micron Size 27","Counts/Channel 27","Micron Size 28","Counts/Channel 28","Micron Size 29","Counts/Channel 29","Micron Size 30","Counts/Channel 30","Micron Size 31","Counts/Channel 31"
"03/04/08","02:00:05",38122.000,"cc",28304.537,1,0.100,31438.000,0.200,3091.000,0.300,1489.000,0.500,1529.000,1.000,575.000,5.000,0
"03/04/08","02:00:11",36883.000,"cc",28306.033,1,0.100,30937.000,0.200,2737.000,0.300,1283.000,0.500,1388.000,1.000,538.000,5.000,0
"03/04/08","02:00:17",36924.000,"cc",28315.414,1,0.100,31079.000,0.200,2684.000,0.300,1248.000,0.500,1407.000,1.000,506.000,5.000,0
"03/04/08","02:00:23",36967.000,"cc",28328.084,1,0.100,30819.000,0.200,2822.000,0.300,1340.000,0.500,1478.000,1.000,508.000,5.000,0
"03/04/08","02:00:29",38991.000,"cc",28374.229,1,0.100,31470.000,0.200,3475.000,0.300,1704.000,0.500,1725.000,1.000,617.000,5.000,0
"03/04/08","02:00:35",39101.000,"cc",28291.354,1,0.100,31591.000,0.200,3393.000,0.300,1802.000,0.500,1725.000,1.000,590.000,5.000,0
"03/04/08","02:00:41",37797.000,"cc",28310.795,1,0.100,31205.000,0.200,3000.000,0.300,1431.000,0.500,1563.000,1.000,598.000,5.000,0
"03/04/08","02:00:47",42111.000,"cc",28336.734,1,0.100,32678.000,0.200,4157.000,0.300,2513.000,0.500,2087.000,1.000,676.000,5.000,0
"03/04/08","02:00:53",39125.000,"cc",28307.098,1,0.100,31589.000,0.200,3420.000,0.300,1776.000,0.500,1718.000,1.000,622.000,5.000,0
"03/04/08","02:00:59",38546.000,"cc",28235.955,1,0.100,31381.000,0.200,3276.000,0.300,1618.000,0.500,1670.000,1.000,601.000,5.000,0
"03/04/08","02:01:05",38490.000,"cc",28269.897,1,0.100,31488.000,0.200,3123.000,0.300,1606.000,0.500,1664.000,1.000,609.000,5.000,0
"03/04/08","02:01:11",39942.000,"cc",28384.242,1,0.100,32028.000,0.200,3603.000,0.300,1846.000,0.500,1821.000,1.000,644.000,5.000,0
"03/04/08","02:01:17",37295.000,"cc",28336.440,1,0.100,31126.000,0.200,2831.000,0.300,1401.000,0.500,1437.000,1.000,500.000,5.000,0
"03/04/08","02:01:23",40972.000,"cc",28310.777,1,0.100,32699.000,0.200,3729.000,0.300,1992.000,0.500,1908.000,1.000,644.000,5.000,0
"03/04/08","02:01:29",40289.000,"cc",28293.828,1,0.100,32294.000,0.200,3628.000,0.300,1915.000,0.500,1822.000,1.000,630.000,5.000,0
"03/04/08","02:01:35",38321.000,"cc",28381.104,1,0.100,31577.000,0.200,3134.000,0.300,1490.000,0.500,1517.000,1.000,603.000,5.000,0
"03/04/08","02:01:41",36661.000,"cc",28300.475,1,0.100,30913.000,0.200,2617.000,0.300,1278.000,0.500,1347.000,1.000,505.000,5.000,1.000
"03/04/08","02:01:47",37343.000,"cc",28255.883,1,0.100,31170.000,0.200,2841.000,0.300,1309.000,0.500,1476.000,1.000,547.000,5.000,0
"03/04/08","02:01:53",37341.000,"cc",28301.373,1,0.100,31019.000,0.200,2903.000,0.300,1349.000,0.500,1506.000,1.000,564.000,5.000,0
"03/04/08","02:01:59",36723.000,"cc",28358.662,1,0.100,30747.000,0.200,2743.000,0.300,1304.000,0.500,1386.000,1.000,543.000,5.000,0
"03/04/08","02:02:05",36754.000,"cc",28318.758,1,0.100,30785.000,0.200,2771.000,0.300,1243.000,0.500,1424.000,1.000,531.000,5.000,0
"03/04/08","02:02:11",36576.000,"cc",28320.205,1,0.100,30826.000,0.200,2598.000,0.300,1241.000,0.500,1407.000,1.000,504.000,5.000,0
"03/04/08","02:02:17",37932.000,"cc",28236.023,1,0.100,31092.000,0.200,3080.000,0.300,1596.000,0.500,1602.000,1.000,562.000,5.000,0
"03/04/08","02:02:23",40331.000,"cc",28307.900,1,0.100,32334.000,0.200,3610.000,0.300,1927.000,0.500,1811.000,1.000,649.000,5.000,0
"03/04/08","02:02:29",36629.000,"cc",28336.348,1,0.100,30904.000,0.200,2602.000,0.300,1330.000,0.500,1292.000,1.000,501.000,5.000,0
"03/04/08","02:02:35",36980.000,"cc",28282.701,1,0.100,30827.000,0.200,2829.000,0.300,1318.000,0.500,1493.000,1.000,513.000,5.000,0
"03/04/08","02:02:41",40217.000,"cc",28369.820,1,0.100,32203.000,0.200,3614.000,0.300,1880.000,0.500,1829.000,1.000,691.000,5.000,0
"03/04/08","02:02:47",39022.000,"cc",28379.619,1,0.100,31578.000,0.200,3288.000,0.300,1783.000,0.500,1727.000,1.000,646.000,5.000,0
"03/04/08","02:02:53",38764.000,"cc",28263.170,1,0.100,31584.000,0.200,3202.000,0.300,1663.000,0.500,1708.000,1.000,607.000,5.000,0
"03/04/08","02:02:59",40563.000,"cc",28332.371,1,0.100,32465.000,0.200,3638.000,0.300,1912.000,0.500,1868.000,1.000,680.000,5.000,0
"03/04/08","02:03:05",38319.000,"cc",28366.541,1,0.100,31419.000,0.200,3107.000,0.300,1554.000,0.500,1648.000,1.000,591.000,5.000,0
"03/04/08","02:03:11",37348.000,"cc",28285.465,1,0.100,30878.000,0.200,2981.000,0.300,1405.000,0.500,1514.000,1.000,570.000,5.000,0
"03/04/08","02:03:17",36733.000,"cc",28283.648,1,0.100,30739.000,0.200,2743.000,0.300,1309.000,0.500,1400.000,1.000,542.000,5.000,0
"03/04/08","02:03:23",36023.000,"cc",28297.846,1,0.100,30473.000,0.200,2515.000,0.300,1080.000,0.500,1419.000,1.000,536.000,5.000,0
"03/04/08","02:03:29",37736.000,"cc",28303.994,1,0.100,31374.000,0.200,2914.000,0.300,1420.000,0.500,1481.000,1.000,547.000,5.000,0
"03/04/08","02:03:35",38084.000,"cc",28314.150,1,0.100,31145.000,0.200,3143.000,0.300,1559.000,0.500,1649.000,1.000,588.000,5.000,0
"03/04/08","02:03:41",40058.000,"cc",28322.115,1,0.100,31958.000,0.200,3734.000,0.300,1949.000,0.500,1803.000,1.000,614.000,5.000,0
"03/04/08","02:03:47",39672.000,"cc",28300.924,1,0.100,31762.000,0.200,3581.000,0.300,1853.000,0.500,1808.000,1.000,668.000,5.000,0
"03/04/08","02:03:53",38756.000,"cc",28342.816,1,0.100,31564.000,0.200,3272.000,0.300,1679.000,0.500,1643.000,1.000,598.000,5.000,0
"03/04/08","02:03:59",39378.000,"cc",28231.090,1,0.100,31857.000,0.200,3292.000,0.300,1881.000,0.500,1751.000,1.000,597.000,5.000,0
"03/04/08","02:04:05",41373.000,"cc",28357.172,1,0.100,32783.000,0.200,3889.000,0.300,2140.000,0.500,1909.000,1.000,652.000,5.000,0
"03/04/08","02:04:11",38825.000,"cc",28344.203,1,0.100,31565.000,0.200,3331.000,0.300,1621.000,0.500,1703.000,1.000,605.000,5.000,0
"03/04/08","02:04:17",37325.000,"cc",28312.279,1,0.100,30892.000,0.200,2955.000,0.300,1398.000,0.500,1511.000,1.000,569.000,5.000,0
"03/04/08","02:04:23",36767.000,"cc",28338.510,1,0.100,30761.000,0.200,2682.000,0.300,1352.000,0.500,1441.000,1.000,531.000,5.000,0
"03/04/08","02:04:29",37511.000,"cc",28317.133,1,0.100,31187.000,0.200,2950.000,0.300,1417.000,0.500,1457.000,1.000,500.000,5.000,0
"03/04/08","02:04:35",37427.000,"cc",28343.522,1,0.100,31026.000,0.200,2955.000,0.300,1410.000,0.500,1481.000,1.000,555.000,5.000,0
"03/04/08","02:04:41",36369.000,"cc",28301.004,1,0.100,30617.000,0.200,2697.000,0.300,1207.000,0.500,1318.000,1.000,530.000,5.000,0
"03/04/08","02:04:47",39742.000,"cc",28304.588,1,0.100,32299.000,0.200,3299.000,0.300,1768.000,0.500,1747.000,1.000,629.000,5.000,0
"03/04/08","02:04:53",38151.000,"cc",28342.217,1,0.100,31419.000,0.200,3015.000,0.300,1483.000,0.500,1611.000,1.000,623.000,5.000,0
"03/04/08","02:04:59",38788.000,"cc",28299.869,1,0.100,31642.000,0.200,3181.000,0.300,1687.000,0.500,1673.000,1.000,605.000,5.000,0
"03/04/08","02:05:05",36897.000,"cc",28307.721,1,0.100,30770.000,0.200,2756.000,0.300,1399.000,0.500,1434.000,1.000,538.000,5.000,0
"03/04/08","02:05:11",37859.000,"cc",28372.674,1,0.100,31218.000,0.200,2945.000,0.300,1608.000,0.500,1502.000,1.000,586.000,5.000,0
"03/04/08","02:05:17",36424.000,"cc",28326.754,1,0.100,30617.000,0.200,2642.000,0.300,1273.000,0.500,1374.000,1.000,518.000,5.000,0
"03/04/08","02:05:23",39225.000,"cc",28227.000,1,0.100,32000.000,0.200,3214.000,0.300,1682.000,0.500,1731.000,1.000,598.000,5.000,0
"03/04/08","02:05:29",36757.000,"cc",28330.623,1,0.100,30829.000,0.200,2743.000,0.300,1260.000,0.500,1426.000,1.000,499.000,5.000,0
"03/04/08","02:05:35",36196.000,"cc",28295.283,1,0.100,30372.000,0.200,2644.000,0.300,1212.000,0.500,1409.000,1.000,559.000,5.000,0
"03/04/08","02:05:41",37467.000,"cc",28350.512,1,0.100,30795.000,0.200,3021.000,0.300,1559.000,0.500,1522.000,1.000,570.000,5.000,0
"03/04/08","02:05:47",37895.000,"cc",28341.647,1,0.100,30993.000,0.200,3069.000,0.300,1554.000,0.500,1670.000,1.000,609.000,5.000,0
"03/04/08","02:05:53",40901.000,"cc",28317.125,1,0.100,32206.000,0.200,3848.000,0.300,2150.000,0.500,1997.000,1.000,700.000,5.000,0
"03/04/08","02:05:59",40454.000,"cc",28320.186,1,0.100,32067.000,0.200,3747.000,0.300,2080.000,0.500,1888.000,1.000,672.000,5.000,0
"03/04/08","02:06:05",41001.000,"cc",28298.731,1,0.100,32497.000,0.200,3835.000,0.300,2144.000,0.500,1868.000,1.000,657.000,5.000,0
"03/04/08","02:06:11",40288.000,"cc",28294.131,1,0.100,32150.000,0.200,3613.000,0.300,2011.000,0.500,1850.000,1.000,664.000,5.000,0
"03/04/08","02:06:17",42476.000,"cc",28343.301,1,0.100,32859.000,0.200,4319.000,0.300,2480.000,0.500,2101.000,1.000,717.000,5.000,0
"03/04/08","02:06:23",38587.000,"cc",28342.699,1,0.100,31666.000,0.200,3163.000,0.300,1622.000,0.500,1615.000,1.000,521.000,5.000,0
"03/04/08","02:06:29",37872.000,"cc",28278.652,1,0.100,31175.000,0.200,3087.000,0.300,1541.000,0.500,1522.000,1.000,547.000,5.000,0
"03/04/08","02:06:35",38654.000,"cc",28395.680,1,0.100,31433.000,0.200,3333.000,0.300,1662.000,0.500,1643.000,1.000,583.000,5.000,0
"03/04/08","02:06:41",37615.000,"cc",28251.973,1,0.100,30955.000,0.200,3028.000,0.300,1557.000,0.500,1512.000,1.000,563.000,5.000,0
"03/04/08","02:06:47",37227.000,"cc",28330.014,1,0.100,30917.000,0.200,2843.000,0.300,1429.000,0.500,1468.000,1.000,570.000,5.000,0
"03/04/08","02:06:53",38705.000,"cc",28313.123,1,0.100,31349.000,0.200,3375.000,0.300,1687.000,0.500,1694.000,1.000,600.000,5.000,0
"03/04/08","02:06:59",40543.000,"cc",28306.719,1,0.100,32475.000,0.200,3557.000,0.300,2019.000,0.500,1808.000,1.000,684.000,5.000,0
"03/04/08","02:07:05",37406.000,"cc",28340.096,1,0.100,30978.000,0.200,2886.000,0.300,1464.000,0.500,1521.000,1.000,557.000,5.000,0
"03/04/08","02:07:11",38482.000,"cc",28309.684,1,0.100,31322.000,0.200,3137.000,0.300,1699.000,0.500,1704.000,1.000,620.000,5.000,0
"03/04/08","02:07:17",39201.000,"cc",28262.201,1,0.100,31472.000,0.200,3538.000,0.300,1813.000,0.500,1741.000,1.000,637.000,5.000,0
"03/04/08","02:07:23",38250.000,"cc",28297.856,1,0.100,31246.000,0.200,3186.000,0.300,1674.000,0.500,1609.000,1.000,535.000,5.000,0
"03/04/08","02:07:29",43165.000,"cc",28305.857,1,0.100,33384.000,0.200,4423.000,0.300,2471.000,0.500,2143.000,1.000,744.000,5.000,0
"03/04/08","02:07:35",43652.000,"cc",28285.084,1,0.100,33615.000,0.200,4567.000,0.300,2500.000,0.500,2245.000,1.000,725.000,5.000,0
"03/04/08","02:07:41",44224.000,"cc",28347.266,1,0.100,34064.000,0.200,4523.000,0.300,2553.000,0.500,2307.000,1.000,777.000,5.000,0
"03/04/08","02:07:47",43126.000,"cc",28351.383,1,0.100,33314.000,0.200,4449.000,0.300,2471.000,0.500,2114.000,1.000,778.000,5.000,0
"03/04/08","02:07:53",42719.000,"cc",28265.682,1,0.100,33105.000,0.200,4362.000,0.300,2475.000,0.500,2082.000,1.000,695.000,5.000,0
"03/04/08","02:07:59",38873.000,"cc",28271.836,1,0.100,31485.000,0.200,3325.000,0.300,1766.000,0.500,1698.000,1.000,599.000,5.000,0
"03/04/08","02:08:05",41795.000,"cc",28312.654,1,0.100,32846.000,0.200,4047.000,0.300,2169.000,0.500,2009.000,1.000,724.000,5.000,0
"03/04/08","02:08:11",44897.000,"cc",28343.125,1,0.100,34045.000,0.200,4877.000,0.300,2782.000,0.500,2360.000,1.000,833.000,5.000,0
"03/04/08","02:08:17",42503.000,"cc",28356.820,1,0.100,33312.000,0.200,4038.000,0.300,2298.000,0.500,2106.000,1.000,749.000,5.000,0
"03/04/08","02:08:23",41639.000,"cc",28341.617,1,0.100,32825.000,0.200,3866.000,0.300,2164.000,0.500,2095.000,1.000,689.000,5.000,0
"03/04/08","02:08:29",40315.000,"cc",28287.236,1,0.100,32363.000,0.200,3534.000,0.300,1867.000,0.500,1919.000,1.000,632.000,5.000,0
"03/04/08","02:08:35",43745.000,"cc",28306.758,1,0.100,35125.000,0.200,4023.000,0.300,1998.000,0.500,1905.000,1.000,694.000,5.000,0
"03/04/08","02:08:41",50478.000,"cc",28307.623,1,0.100,40438.000,0.200,4948.000,0.300,2270.000,0.500,2145.000,1.000,677.000,5.000,0
"03/04/08","02:08:47",42605.000,"cc",28332.168,1,0.100,34960.000,0.200,3701.000,0.300,1697.000,0.500,1606.000,1.000,641.000,5.000,0
"03/04/08","02:08:53",40070.000,"cc",28271.406,1,0.100,33266.000,0.200,3259.000,0.300,1396.000,0.500,1552.000,1.000,597.000,5.000,0
"03/04/08","02:08:59",37057.000,"cc",28314.984,1,0.100,31077.000,0.200,2803.000,0.300,1289.000,0.500,1357.000,1.000,531.000,5.000,0
"03/04/08","02:09:05",36967.000,"cc",28309.857,1,0.100,30845.000,0.200,2756.000,0.300,1345.000,0.500,1456.000,1.000,565.000,5.000,0
"03/04/08","02:09:11",38131.000,"cc",28378.543,1,0.100,31589.000,0.200,3049.000,0.300,1444.000,0.500,1486.000,1.000,563.000,5.000,0
"03/04/08","02:09:17",38182.000,"cc",28340.760,1,0.100,31468.000,0.200,3045.000,0.300,1552.000,0.500,1549.000,1.000,568.000,5.000,0
"03/04/08","02:09:23",40899.000,"cc",28304.551,1,0.100,32970.000,0.200,3645.000,0.300,1824.000,0.500,1802.000,1.000,658.000,5.000,0
"03/04/08","02:09:29",41034.000,"cc",28343.307,1,0.100,32841.000,0.200,3731.000,0.300,1931.000,0.500,1827.000,1.000,704.000,5.000,0
"03/04/08","02:09:35",39697.000,"cc",28303.500,1,0.100,32144.000,0.200,3439.000,0.300,1750.000,0.500,1743.000,1.000,621.000,5.000,0
"03/04/08","02:09:41",38175.000,"cc",28271.264,1,0.100,31258.000,0.200,3185.000,0.300,1557.000,0.500,1611.000,1.000,563.000,5.000,1.000
"03/04/08","02:09:47",38838.000,"cc",28324.037,1,0.100,31810.000,0.200,3129.000,0.300,1643.000,0.500,1639.000,1.000,617.000,5.000,0
"03/04/08","02:09:53",38323.000,"cc",28253.637,1,0.100,31490.000,0.200,3095.000,0.300,1573.000,0.500,1567.000,1.000,598.000,5.000,0
"03/04/08","02:09:59",38693.000,"cc",28356.523,1,0.100,31526.000,0.200,3198.000,0.300,1711.000,0.500,1661.000,1.000,597.000,5.000,0
"03/04/08","02:10:05",39314.000,"cc",28321.363,1,0.100,31589.000,0.200,3546.000,0.300,1737.000,0.500,1785.000,1.000,657.000,5.000,0
"03/04/08","02:10:11",38563.000,"cc",28292.850,1,0.100,31423.000,0.200,3202.000,0.300,1676.000,0.500,1666.000,1.000,596.000,5.000,0
"03/04/08","02:10:17",37285.000,"cc",28302.557,1,0.100,30878.000,0.200,2884.000,0.300,1488.000,0.500,1470.000,1.000,565.000,5.000,0
"03/04/08","02:10:23",39563.000,"cc",28347.576,1,0.100,32180.000,0.200,3278.000,0.300,1749.000,0.500,1711.000,1.000,645.000,5.000,0
"03/04/08","02:10:29",40678.000,"cc",28302.525,1,0.100,32863.000,0.200,3504.000,0.300,1893.000,0.500,1785.000,1.000,633.000,5.000,0
"03/04/08","02:10:35",41422.000,"cc",28303.217,1,0.100,33363.000,0.200,3758.000,0.300,1893.000,0.500,1738.000,1.000,670.000,5.000,0
"03/04/08","02:10:41",37953.000,"cc",28381.022,1,0.100,31510.000,0.200,3002.000,0.300,1397.000,0.500,1468.000,1.000,576.000,5.000,0
"03/04/08","02:10:47",39045.000,"cc",28317.934,1,0.100,31980.000,0.200,3214.000,0.300,1621.000,0.500,1587.000,1.000,643.000,5.000,0
"03/04/08","02:10:53",41139.000,"cc",28266.022,1,0.100,33533.000,0.200,3451.000,0.300,1729.000,0.500,1776.000,1.000,650.000,5.000,0
"03/04/08","02:10:59",42269.000,"cc",28333.063,1,0.100,33459.000,0.200,4042.000,0.300,2142.000,0.500,1961.000,1.000,665.000,5.000,0
"03/04/08","02:11:05",45311.000,"cc",28294.633,1,0.100,35450.000,0.200,4497.000,0.300,2418.000,0.500,2194.000,1.000,752.000,5.000,0
"03/04/08","02:11:11",42637.000,"cc",28296.014,1,0.100,33898.000,0.200,4067.000,0.300,2071.000,0.500,1947.000,1.000,654.000,5.000,0
"03/04/08","02:11:17",42955.000,"cc",28381.246,1,0.100,34164.000,0.200,3931.000,0.300,2122.000,0.500,2063.000,1.000,675.000,5.000,0
"03/04/08","02:11:23",40749.000,"cc",28290.522,1,0.100,32845.000,0.200,3691.000,0.300,1856.000,0.500,1708.000,1.000,649.000,5.000,0
"03/04/08","02:11:29",42254.000,"cc",28295.738,1,0.100,33682.000,0.200,3854.000,0.300,2149.000,0.500,1891.000,1.000,678.000,5.000,0
"03/04/08","02:11:35",42781.000,"cc",28311.889,1,0.100,33962.000,0.200,4026.000,0.300,2102.000,0.500,2009.000,1.000,682.000,5.000,0
"03/04/08","02:11:41",45224.000,"cc",28372.369,1,0.100,36091.000,0.200,4233.000,0.300,2117.000,0.500,2069.000,1.000,714.000,5.000,0
"03/04/08","02:11:47",44286.000,"cc",28292.451,1,0.100,34984.000,0.200,4295.000,0.300,2228.000,0.500,2006.000,1.000,773.000,5.000,0
"03/04/08","02:11:53",44869.000,"cc",28315.164,1,0.100,35464.000,0.200,4349.000,0.300,2247.000,0.500,2057.000,1.000,751.000,5.000,1.000
"03/04/08","02:11:59",44182.000,"cc",28278.443,1,0.100,35048.000,0.200,4241.000,0.300,2189.000,0.500,2014.000,1.000,690.000,5.000,0
"03/04/08","02:12:05",43110.000,"cc",28343.008,1,0.100,34481.000,0.200,4036.000,0.300,2039.000,0.500,1863.000,1.000,691.000,5.000,0
"03/04/08","02:12:11",40755.000,"cc",28388.574,1,0.100,33086.000,0.200,3510.000,0.300,1773.000,0.500,1744.000,1.000,642.000,5.000,0
"03/04/08","02:12:17",44262.000,"cc",28316.356,1,0.100,35001.000,0.200,4189.000,0.300,2228.000,0.500,2088.000,1.000,756.000,5.000,0
"03/04/08","02:12:23",43576.000,"cc",28312.572,1,0.100,35058.000,0.200,4040.000,0.300,1915.000,0.500,1873.000,1.000,690.000,5.000,0
"03/04/08","02:12:29",43995.000,"cc",28319.334,1,0.100,34992.000,0.200,4176.000,0.300,2114.000,0.500,2016.000,1.000,697.000,5.000,0
"03/04/08","02:12:35",44923.000,"cc",28266.854,1,0.100,36015.000,0.200,4305.000,0.300,2015.000,0.500,1934.000,1.000,654.000,5.000,0
"03/04/08","02:12:41",46266.000,"cc",28362.842,1,0.100,36791.000,0.200,4564.000,0.300,2171.000,0.500,2004.000,1.000,736.000,5.000,0
"03/04/08","02:12:47",44229.000,"cc",28264.742,1,0.100,35247.000,0.200,4158.000,0.300,2097.000,0.500,2051.000,1.000,676.000,5.000,0
"03/04/08","02:12:53",44246.000,"cc",28345.443,1,0.100,35232.000,0.200,4171.000,0.300,2199.000,0.500,1961.000,1.000,683.000,5.000,0
"03/04/08","02:12:59",40660.000,"cc",28306.402,1,0.100,32689.000,0.200,3651.000,0.300,1874.000,0.500,1805.000,1.000,641.000,5.000,0
"03/04/08","02:13:05",41889.000,"cc",28356.988,1,0.100,33532.000,0.200,3788.000,0.300,1981.000,0.500,1875.000,1.000,713.000,5.000,0
"03/04/08","02:13:11",43446.000,"cc",28288.428,1,0.100,34223.000,0.200,4230.000,0.300,2183.000,0.500,2073.000,1.000,737.000,5.000,0
"03/04/08","02:13:17",41022.000,"cc",28266.551,1,0.100,32867.000,0.200,3677.000,0.300,1982.000,0.500,1833.000,1.000,663.000,5.000,0
"03/04/08","02:13:23",40070.000,"cc",28310.516,1,0.100,32165.000,0.200,3603.000,0.300,1791.000,0.500,1853.000,1.000,658.000,5.000,0
"03/04/08","02:13:29",42996.000,"cc",28329.326,1,0.100,33954.000,0.200,4140.000,0.300,2139.000,0.500,2014.000,1.000,749.000,5.000,0
"03/04/08","02:13:35",41406.000,"cc",28381.805,1,0.100,33044.000,0.200,3731.000,0.300,1998.000,0.500,1939.000,1.000,694.000,5.000,0
"03/04/08","02:13:41",44330.000,"cc",28288.022,1,0.100,35148.000,0.200,4220.000,0.300,2217.000,0.500,2054.000,1.000,691.000,5.000,0
"03/04/08","02:13:47",43652.000,"cc",28297.537,1,0.100,34512.000,0.200,4177.000,0.300,2218.000,0.500,2026.000,1.000,719.000,5.000,0
"03/04/08","02:13:53",44880.000,"cc",28275.182,1,0.100,35048.000,0.200,4498.000,0.300,2425.000,0.500,2154.000,1.000,755.000,5.000,0
"03/04/08","02:13:59",43738.000,"cc",28256.332,1,0.100,34469.000,0.200,4253.000,0.300,2238.000,0.500,2100.000,1.000,678.000,5.000,0
"03/04/08","02:14:05",45005.000,"cc",28335.908,1,0.100,34906.000,0.200,4558.000,0.300,2523.000,0.500,2275.000,1.000,743.000,5.000,0
"03/04/08","02:14:11",43867.000,"cc",28396.107,1,0.100,34498.000,0.200,4304.000,0.300,2262.000,0.500,2078.000,1.000,725.000,5.000,0
"03/04/08","02:14:17",40264.000,"cc",28333.406,1,0.100,32161.000,0.200,3632.000,0.300,1965.000,0.500,1867.000,1.000,639.000,5.000,0
"03/04/08","02:14:23",47705.000,"cc",28360.768,1,0.100,38300.000,0.200,4588.000,0.300,2134.000,0.500,1979.000,1.000,704.000,5.000,0
"03/04/08","02:14:29",50859.000,"cc",28229.654,1,0.100,41735.000,0.200,4774.000,0.300,1866.000,0.500,1820.000,1.000,664.000,5.000,0
"03/04/08","02:14:35",50128.000,"cc",28340.072,1,0.100,40808.000,0.200,4758.000,0.300,2072.000,0.500,1845.000,1.000,645.000,5.000,0
"03/04/08","02:14:41",54847.000,"cc",28312.098,1,0.100,45061.000,0.200,5163.000,0.300,2075.000,0.500,1887.000,1.000,661.000,5.000,0
"03/04/08","02:14:47",47421.000,"cc",28312.828,1,0.100,39227.000,0.200,4172.000,0.300,1728.000,0.500,1684.000,1.000,610.000,5.000,0
"03/04/08","02:14:53",47502.000,"cc",28281.787,1,0.100,39290.000,0.200,4120.000,0.300,1778.000,0.500,1705.000,1.000,609.000,5.000,0
"03/04/08","02:14:59",50170.000,"cc",28294.633,1,0.100,41385.000,0.200,4635.000,0.300,1774.000,0.500,1725.000,1.000,651.000,5.000,0
"03/04/08","02:15:05",43460.000,"cc",28317.838,1,0.100,35915.000,0.200,3852.000,0.300,1639.000,0.500,1487.000,1.000,567.000,5.000,0
"03/04/08","02:15:11",50125.000,"cc",28381.231,1,0.100,40726.000,0.200,4779.000,0.300,1993.000,0.500,1918.000,1.000,709.000,5.000,0
"03/04/08","02:15:17",48110.000,"cc",28323.168,1,0.100,38472.000,0.200,4612.000,0.300,2178.000,0.500,2133.000,1.000,715.000,5.000,0
"03/04/08","02:15:23",47060.000,"cc",28291.822,1,0.100,37919.000,0.200,4392.000,0.300,2122.000,0.500,1918.000,1.000,709.000,5.000,0
"03/04/08","02:15:29",53018.000,"cc",28313.949,1,0.100,41446.000,0.200,5591.000,0.300,2804.000,0.500,2356.000,1.000,821.000,5.000,0
"03/04/08","02:15:35",46945.000,"cc",28326.133,1,0.100,37069.000,0.200,4696.000,0.300,2283.000,0.500,2122.000,1.000,775.000,5.000,0
"03/04/08","02:15:41",47142.000,"cc",28290.029,1,0.100,38067.000,0.200,4428.000,0.300,2031.000,0.500,1967.000,1.000,649.000,5.000,0
"03/04/08","02:15:47",45451.000,"cc",28308.570,1,0.100,36733.000,0.200,4214.000,0.300,1962.000,0.500,1883.000,1.000,659.000,5.000,0
"03/04/08","02:15:53",43249.000,"cc",28381.981,1,0.100,34705.000,0.200,4039.000,0.300,1887.000,0.500,1905.000,1.000,713.000,5.000,0
"03/04/08","02:15:59",41839.000,"cc",28316.016,1,0.100,33357.000,0.200,3934.000,0.300,1938.000,0.500,1954.000,1.000,656.000,5.000,0
"03/04/08","02:16:05",41965.000,"cc",28306.748,1,0.100,33199.000,0.200,3987.000,0.300,2138.000,0.500,1928.000,1.000,713.000,5.000,0
"03/04/08","02:16:11",44460.000,"cc",28284.203,1,0.100,34670.000,0.200,4593.000,0.300,2391.000,0.500,2088.000,1.000,718.000,5.000,0
"03/04/08","02:16:17",44376.000,"cc",28337.129,1,0.100,34636.000,0.200,4469.000,0.300,2335.000,0.500,2164.000,1.000,772.000,5.000,0
"03/04/08","02:16:23",46810.000,"cc",28340.756,1,0.100,36142.000,0.200,4815.000,0.300,2647.000,0.500,2404.000,1.000,802.000,5.000,0
"03/04/08","02:16:29",43429.000,"cc",28320.990,1,0.100,33883.000,0.200,4385.000,0.300,2250.000,0.500,2166.000,1.000,745.000,5.000,0
"03/04/08","02:16:35",44252.000,"cc",28313.121,1,0.100,34372.000,0.200,4505.000,0.300,2392.000,0.500,2169.000,1.000,814.000,5.000,0
"03/04/08","02:16:41",40664.000,"cc",28276.502,1,0.100,32702.000,0.200,3628.000,0.300,1911.000,0.500,1756.000,1.000,667.000,5.000,0
"03/04/08","02:16:47",44701.000,"cc",28330.484,1,0.100,34647.000,0.200,4526.000,0.300,2551.000,0.500,2202.000,1.000,775.000,5.000,0
"03/04/08","02:16:53",44956.000,"cc",28311.045,1,0.100,34411.000,0.200,4746.000,0.300,2625.000,0.500,2361.000,1.000,813.000,5.000,0
"03/04/08","02:16:59",44470.000,"cc",28285.043,1,0.100,34225.000,0.200,4612.000,0.300,2584.000,0.500,2331.000,1.000,718.000,5.000,0
"03/04/08","02:17:05",40763.000,"cc",28324.527,1,0.100,32715.000,0.200,3640.000,0.300,1846.000,0.500,1851.000,1.000,711.000,5.000,0